Wind_Speed
40 42 45 46 48 50 50 50 51 51 52 52 53 55 56 57 58 58 57 57 56 56 57 58 59 60 61 62 63 64 64 64 63 59 56 52 50 50 50 49 48 47 47
42 44 47 49 51 51 52 52 51 50 51 52 53 55 56 57 57 56 56 56 57 57 58 59 60 61 62 62 61 59 58 56 54 50 47 44 43 43 43 43 42 41 40
45 48 49 50 51 52 51 51 50 50 51 53 55 56 56 56 55 55 56 57 58 59 59 60 60 61 59 57 55 52 49 47 44 41 38 37 37 37 37 36 35 35 33
48 49 49 49 50 50 50 49 49 50 52 54 54 54 54 54 55 56 57 57 58 59 59 59 58 56 52 48 44 40 38 35 33 31 29 29 30 31 31 30 29 27 26
49 49 49 49 49 50 49 48 50 52 53 53 52 52 53 54 54 56 57 58 58 57 56 54 51 47 42 37 33 31 30 27 25 23 23 23 25 25 25 23 20 19 19
47 48 49 49 49 48 48 49 51 51 51 51 51 52 53 54 55 56 56 56 56 53 50 46 42 39 34 31 29 27 25 23 22 21 20 20 19 18 16 14 14 14 15
49 50 49 48 46 46 47 49 49 49 49 50 51 53 54 54 55 55 55 53 50 46 42 39 36 34 30 28 26 24 22 21 19 18 16 15 12 10 8 8 9 10 12
51 50 47 44 44 46 47 47 48 48 49 50 52 52 53 53 53 52 49 46 42 39 37 35 32 31 28 25 23 21 18 17 14 12 10 8 5 4 4 5 7 8 9
49 45 42 41 43 45 45 46 47 48 49 50 50 50 50 50 48 44 41 38 36 34 33 32 29 26 24 21 18 16 13 10 8 6 4 2 1 1 3 4 4 6 7
43 38 38 40 42 42 43 45 46 47 48 48 48 47 46 44 40 37 34 32 30 29 29 28 25 20 17 13 11 9 7 3 2 2 3 4 4 4 4 3 2 3 5
34 35 37 38 39 41 43 44 45 46 46 46 45 43 40 36 33 31 29 27 26 25 24 22 18 12 8 5 3 2 3 5 6 7 7 7 7 6 4 2 0 2 5
31 33 35 36 38 41 42 43 44 44 44 43 40 37 33 30 28 27 25 24 23 23 20 15 10 5 2 3 5 7 8 9 10 9 9 8 8 6 5 3 2 4 4
30 32 34 36 39 40 41 42 42 42 40 37 34 31 28 26 24 23 22 22 23 20 16 11 7 7 8 9 11 11 12 12 11 10 10 9 8 7 5 4 4 4 5
29 32 35 37 38 40 41 40 39 37 33 30 28 26 24 22 21 20 19 20 19 15 10 9 10 12 13 14 14 13 13 12 11 11 11 10 9 7 7 6 7 9 10
31 33 35 37 39 39 39 37 33 29 26 25 24 22 20 18 17 16 16 16 14 10 9 11 13 15 16 16 16 15 13 13 12 12 11 10 9 9 9 10 11 13 15
31 34 36 38 38 37 34 29 25 23 22 22 21 19 16 14 14 14 14 14 12 9 10 13 16 18 18 18 18 16 14 13 13 12 11 10 10 11 11 12 13 15 18
32 35 36 36 35 31 27 23 20 19 20 20 18 15 13 11 12 12 12 12 11 10 12 15 18 19 20 19 18 16 14 13 13 12 11 11 12 13 14 15 16 18 19
33 34 34 32 29 25 21 18 17 18 19 18 15 13 11 10 9 11 10 10 11 10 13 17 19 20 19 18 17 16 14 13 12 12 12 13 14 16 16 17 19 21 22
33 32 30 26 22 19 17 16 16 17 18 16 14 12 11 8 7 9 10 10 10 11 15 18 19 19 18 17 16 15 14 12 11 11 12 15 17 18 18 19 20 22 22
29 27 24 21 18 17 16 16 16 17 17 15 13 12 10 8 7 8 10 11 11 12 15 17 17 17 16 16 15 14 13 12 11 11 14 16 18 20 20 21 22 22 21
25 22 20 18 17 16 16 16 17 16 15 13 11 9 8 7 8 10 11 12 12 13 15 16 15 14 14 14 13 12 11 11 11 12 15 18 20 21 22 23 23 22 21
22 20 19 18 17 17 17 17 17 15 13 11 9 8 8 8 9 11 12 14 14 13 14 14 13 12 12 10 10 11 11 11 11 13 16 18 20 21 22 23 24 24 23
22 20 19 17 17 17 17 17 16 15 13 11 9 8 9 10 11 12 14 15 15 14 13 13 12 10 9 9 10 10 11 11 13 14 17 19 20 20 21 21 22 22 21
23 21 20 18 18 17 17 17 16 15 13 12 12 11 11 12 13 15 16 17 17 16 14 12 11 9 9 9 10 10 11 12 14 16 18 19 20 20 19 18 18 18 17
26 24 22 21 19 19 18 18 17 16 15 14 14 14 13 14 15 16 17 18 17 16 15 13 11 10 9 10 10 11 12 13 15 17 18 19 19 19 18 17 16 14 13
29 28 26 25 23 22 21 20 19 18 17 17 17 17 17 17 17 17 18 18 17 16 15 14 12 11 11 11 11 12 13 14 15 16 17 18 17 17 16 15 14 13 12
Wind_Direction
291 295 300 301 303 303 303 303 304 302 300 298 297 297 297 297 296 296 296 296 296 295 295 293 293 292 292 292 291 291 289 288 287 285 283 279 275 272 271 270 270 269 268
294 299 302 302 302 302 302 303 303 300 298 298 298 298 298 297 297 297 298 297 297 296 296 295 296 296 295 295 293 291 289 288 287 285 282 278 274 271 270 270 270 269 267
297 300 301 302 302 302 301 301 300 299 298 299 299 299 299 299 299 299 299 299 298 298 298 299 298 298 297 296 294 291 290 289 288 286 281 276 272 271 271 271 270 269 265
299 300 301 301 301 300 300 300 299 299 299 300 300 300 300 300 300 301 301 301 301 301 301 301 300 299 298 296 295 293 293 292 290 287 281 276 273 271 271 271 269 266 260
297 297 299 299 297 298 299 299 299 300 301 301 301 301 301 302 303 303 303 303 304 303 303 302 301 299 297 297 296 295 296 295 293 289 285 280 276 273 272 269 263 256 252
293 293 292 293 294 296 297 299 300 301 302 302 303 304 304 305 306 307 307 307 306 305 304 302 300 298 296 296 296 296 296 295 293 291 289 283 277 274 269 262 253 247 240
287 286 286 289 293 296 298 300 301 302 304 305 307 307 308 309 310 310 309 307 306 305 304 302 301 299 296 294 294 294 293 295 293 290 286 282 278 269 258 248 239 232 229
281 282 286 291 295 298 299 301 304 306 308 309 310 311 312 313 313 311 309 308 307 306 305 302 301 300 295 291 290 289 292 295 292 287 285 280 271 257 241 222 217 223 232
278 283 289 295 298 300 302 305 308 310 311 311 312 314 314 315 313 312 311 310 310 309 309 307 304 301 296 290 285 284 289 292 285 279 270 253 212 175 181 197 220 234 244
282 289 296 298 300 304 307 309 310 311 312 314 315 316 317 316 315 315 316 316 316 316 314 312 309 304 295 287 277 278 280 264 216 168 144 125 118 125 136 155 196 248 266
291 297 299 302 305 308 310 311 312 313 315 316 318 319 318 318 319 321 322 323 323 322 321 320 318 312 298 281 270 233 154 142 136 130 119 111 113 119 121 121 81 303 293
300 301 304 307 309 311 312 313 315 317 318 319 320 321 322 323 326 328 330 331 333 334 334 336 341 357 58 99 112 120 125 128 126 120 114 112 113 111 100 72 6 337 327
304 307 310 311 313 313 315 316 318 319 320 321 322 324 326 328 331 334 337 341 342 343 349 2 36 73 91 101 108 116 122 123 121 117 114 111 106 96 77 53 40 41 47
311 313 314 315 315 317 318 320 320 321 323 324 326 328 329 331 334 338 342 345 348 354 12 48 77 90 96 101 106 113 117 116 115 113 112 105 97 84 72 74 76 70 72
316 317 317 317 319 320 321 322 324 325 327 328 329 330 331 334 339 341 344 350 1 21 58 84 92 96 100 102 105 108 110 112 113 113 111 102 91 83 85 89 87 84 82
320 320 320 321 322 324 325 327 329 331 332 332 332 332 335 339 344 349 353 2 19 51 85 96 100 103 104 105 104 104 106 109 112 114 109 98 93 92 96 98 97 92 88
324 324 325 326 327 329 332 334 337 339 339 337 337 339 343 348 354 360 5 16 35 69 99 108 109 109 107 105 103 102 105 109 111 110 104 99 98 100 103 105 104 101 95
329 329 329 332 334 338 340 342 344 344 345 346 348 350 353 356 2 10 20 34 52 82 110 117 116 112 109 105 103 103 105 108 110 107 103 104 105 105 108 111 112 107 102
333 334 337 341 345 347 349 349 349 349 351 353 357 2 6 11 17 26 39 53 69 99 119 122 119 115 110 105 102 101 102 106 108 106 106 111 111 109 111 115 117 114 110
340 343 348 352 355 357 357 356 354 354 356 359 2 8 16 32 46 51 59 68 84 110 126 127 123 117 111 104 100 97 98 103 108 110 114 117 116 114 114 116 119 120 118
351 356 0 3 4 4 2 360 358 358 360 3 7 17 31 55 67 71 74 79 92 113 130 133 127 120 113 105 96 91 94 98 109 118 123 124 123 119 117 116 117 120 122
3 6 8 9 8 7 5 3 3 4 7 11 21 37 52 73 81 80 81 86 95 113 131 137 130 123 116 104 93 91 96 99 110 121 129 130 130 125 121 118 115 114 116
11 11 12 12 12 11 10 10 12 15 21 30 45 57 68 82 86 87 88 91 95 108 125 137 134 126 119 106 99 94 98 104 112 124 132 135 136 134 128 124 119 116 115
20 19 19 19 19 18 18 20 23 30 40 50 59 66 78 89 93 93 93 94 95 102 113 124 129 125 120 110 105 102 103 108 115 125 133 136 138 138 135 131 127 122 119
30 29 29 29 29 28 29 31 36 43 52 59 63 70 81 92 97 97 96 96 98 102 107 111 115 117 116 111 108 108 109 112 117 123 130 134 136 138 138 137 134 131 127
38 38 39 39 40 40 40 43 47 53 60 65 69 74 82 90 95 97 97 97 97 100 102 104 106 108 108 109 110 112 114 115 119 122 125 128 131 135 137 139 139 138 137
Height
5759 5755 5751 5745 5740 5735 5729 5723 5718 5711 5704 5698 5691 5684 5678 5671 5663 5656 5649 5642 5636 5630 5623 5617 5611 5604 5597 5590 5583 5577 5570 5564 5560 5557 5552 5549 5546 5545 5545 5545 5545 5545 5546
5749 5744 5740 5734 5729 5723 5717 5711 5704 5698 5692 5685 5678 5672 5664 5657 5649 5642 5635 5628 5622 5615 5608 5601 5594 5586 5579 5572 5565 5558 5552 5547 5543 5540 5537 5534 5532 5531 5531 5531 5531 5532 5532
5738 5733 5728 5722 5716 5710 5704 5698 5692 5686 5679 5673 5666 5659 5651 5643 5636 5629 5622 5614 5607 5599 5592 5584 5576 5569 5562 5555 5548 5542 5537 5532 5528 5526 5523 5521 5520 5519 5519 5520 5520 5519 5519
5726 5721 5715 5710 5704 5698 5692 5686 5680 5674 5668 5661 5653 5645 5638 5630 5623 5615 5607 5599 5591 5583 5575 5567 5559 5552 5546 5540 5534 5529 5524 5521 5517 5514 5513 5511 5510 5510 5510 5510 5510 5510 5510
5713 5708 5702 5697 5692 5687 5681 5675 5669 5662 5655 5648 5640 5632 5625 5617 5610 5601 5593 5584 5576 5568 5560 5551 5544 5538 5533 5528 5524 5520 5516 5512 5509 5507 5505 5504 5503 5502 5502 5502 5502 5503 5504
5700 5695 5691 5686 5681 5675 5670 5664 5657 5650 5643 5635 5627 5619 5611 5603 5594 5586 5577 5569 5560 5553 5545 5538 5532 5527 5523 5519 5515 5512 5509 5506 5504 5502 5500 5498 5497 5496 5496 5496 5497 5499 5500
5689 5684 5679 5674 5669 5665 5659 5652 5645 5638 5630 5622 5614 5605 5596 5588 5580 5571 5563 5554 5547 5540 5533 5527 5522 5517 5513 5510 5508 5506 5503 5501 5499 5497 5495 5494 5493 5492 5493 5493 5495 5496 5498
5678 5673 5668 5663 5659 5653 5647 5640 5633 5625 5618 5610 5601 5592 5583 5575 5567 5559 5550 5542 5535 5529 5523 5518 5513 5508 5505 5502 5501 5499 5498 5497 5495 5493 5492 5491 5491 5491 5492 5493 5494 5495 5497
5667 5662 5657 5653 5648 5642 5635 5628 5621 5613 5606 5598 5590 5581 5572 5564 5556 5547 5540 5532 5526 5520 5514 5509 5504 5500 5497 5495 5494 5494 5494 5493 5492 5491 5491 5491 5491 5491 5492 5493 5494 5495 5496
5656 5652 5647 5642 5637 5630 5623 5616 5609 5602 5595 5587 5579 5571 5563 5554 5546 5539 5532 5525 5519 5513 5507 5501 5496 5493 5491 5490 5490 5491 5491 5491 5491 5491 5492 5492 5492 5493 5493 5494 5495 5495 5495
5646 5642 5637 5632 5626 5619 5613 5606 5599 5592 5585 5577 5570 5562 5554 5546 5539 5532 5525 5519 5513 5508 5502 5496 5492 5489 5488 5488 5488 5489 5490 5491 5492 5493 5493 5494 5494 5495 5495 5496 5496 5495 5494
5638 5633 5628 5622 5616 5609 5603 5596 5589 5582 5575 5568 5560 5553 5546 5539 5533 5527 5521 5515 5509 5503 5498 5493 5490 5488 5487 5488 5489 5490 5491 5493 5494 5495 5496 5497 5497 5497 5498 5497 5496 5495 5494
5630 5625 5619 5613 5606 5600 5593 5587 5580 5573 5566 5559 5553 5546 5540 5534 5529 5524 5518 5513 5507 5501 5496 5492 5490 5489 5489 5490 5491 5493 5494 5496 5497 5498 5499 5500 5500 5500 5500 5499 5498 5496 5494
5623 5617 5611 5605 5598 5591 5585 5578 5571 5564 5558 5552 5546 5540 5535 5531 5526 5522 5517 5513 5507 5502 5497 5495 5493 5493 5493 5494 5495 5497 5498 5499 5501 5502 5503 5503 5504 5503 5503 5501 5500 5499 5497
5615 5609 5603 5597 5590 5583 5576 5569 5563 5558 5552 5547 5542 5537 5532 5528 5524 5520 5516 5512 5507 5502 5499 5498 5497 5497 5498 5498 5500 5501 5502 5504 5505 5505 5506 5507 5507 5506 5506 5505 5504 5503 5502
5609 5603 5596 5589 5582 5575 5569 5563 5557 5552 5547 5543 5538 5534 5530 5527 5523 5519 5516 5512 5508 5505 5503 5501 5501 5501 5502 5503 5505 5506 5507 5508 5509 5509 5510 5510 5510 5510 5509 5509 5509 5508 5508
5603 5596 5589 5582 5575 5568 5562 5557 5553 5549 5545 5540 5535 5531 5528 5525 5522 5519 5516 5513 5510 5507 5506 5506 5506 5506 5507 5508 5509 5510 5511 5512 5513 5514 5514 5514 5514 5514 5514 5514 5515 5515 5515
5597 5590 5582 5575 5568 5563 5558 5554 5550 5546 5542 5538 5534 5530 5527 5524 5522 5520 5517 5514 5512 5510 5510 5510 5511 5512 5513 5514 5514 5515 5516 5516 5517 5518 5518 5519 5519 5519 5519 5520 5521 5522 5523
5592 5584 5577 5571 5565 5560 5556 5553 5549 5545 5540 5536 5532 5529 5527 5524 5522 5520 5518 5516 5515 5514 5514 5515 5516 5517 5518 5519 5520 5520 5520 5521 5521 5522 5522 5523 5524 5525 5525 5526 5527 5529 5530
5587 5580 5574 5568 5563 5559 5555 5551 5548 5543 5539 5535 5532 5529 5527 5525 5523 5522 5520 5519 5517 5517 5518 5520 5521 5522 5523 5524 5525 5525 5525 5525 5526 5526 5527 5528 5529 5530 5531 5532 5534 5535 5537
5584 5578 5572 5568 5563 5559 5555 5551 5546 5542 5539 5535 5532 5530 5528 5526 5525 5524 5522 5521 5521 5521 5522 5524 5526 5527 5528 5529 5529 5529 5529 5530 5530 5530 5532 5533 5535 5536 5538 5539 5540 5542 5544
5583 5577 5572 5568 5563 5559 5554 5550 5546 5542 5538 5535 5533 5531 5529 5528 5527 5526 5525 5525 5524 5525 5526 5528 5530 5531 5532 5533 5533 5533 5533 5534 5534 5535 5536 5538 5540 5542 5544 5546 5547 5549 5551
5583 5578 5573 5568 5564 5559 5555 5550 5546 5542 5538 5535 5533 5532 5531 5530 5529 5529 5528 5528 5528 5529 5530 5532 5534 5535 5536 5536 5537 5537 5537 5538 5538 5539 5541 5543 5545 5548 5550 5552 5554 5556 5557
5585 5579 5574 5569 5565 5560 5556 5551 5547 5543 5540 5537 5535 5534 5533 5532 5532 5532 5532 5532 5533 5533 5534 5536 5537 5538 5539 5540 5540 5541 5541 5542 5543 5544 5545 5547 5550 5552 5555 5557 5559 5561 5563
5588 5582 5576 5571 5567 5562 5558 5553 5549 5546 5543 5541 5539 5537 5536 5535 5535 5536 5536 5537 5537 5538 5539 5540 5541 5542 5543 5543 5544 5545 5545 5546 5547 5548 5550 5552 5554 5556 5559 5561 5563 5565 5567
5592 5586 5581 5576 5571 5566 5561 5557 5553 5550 5547 5545 5543 5541 5540 5540 5540 5540 5541 5541 5542 5543 5543 5544 5545 5546 5546 5547 5548 5549 5550 5551 5552 5553 5555 5557 5559 5561 5563 5565 5567 5569 5571